SR5NLK-1 Weather Reports


time (UTC)temp
C
wind
direction
speed
KPH
gust
KPH
rain 1hr
cm
rain 24hr
cm
rain mn
cm
humidity
%
barometer
mb
20260508062226 9 337 3.2 6.4 0.00 0.00 0.00 87 1008.4
20260508061726 9 45 0.0 9.7 0.00 0.00 0.00 87 957.7
20260508061225 9 22 9.7 9.7 0.00 0.00 0.00 86 929.8
20260508060726 9 0 1.6 6.4 0.00 0.00 0.00 86 932.7
20260508060226 9 315 0.0 9.7 0.00 0.00 0.00 86 1052.2
20260508055726 9 292 8.0 9.7 0.00 0.00 0.00 85 956.0
20260508055226 9 315 3.2 9.7 0.00 0.00 0.00 85 1062.1
20260508054726 10 315 4.8 6.4 0.00 0.00 0.00 85 1090.9
20260508054226 10 0 3.2 9.7 0.00 0.00 0.00 85 1004.1
20260508053925 10 315 3.2 11.3 0.00 0.00 0.00 85 1036.1
20260508053726 10 22 3.2 11.3 0.00 0.00 0.00 85 1052.2
20260508053226 10 315 1.6 4.8 0.00 0.00 0.00 85 932.5
20260508052726 9 247 0.0 9.7 0.00 0.00 0.00 85 1011.8
20260508052226 10 22 8.0 12.9 0.00 0.00 0.00 85 1097.2
20260508051726 10 22 4.8 9.7 0.00 0.00 0.00 84 1052.1
20260508051226 10 337 8.0 8.0 0.00 0.00 0.00 84 962.2
20260508050726 10 0 4.8 8.0 0.00 0.00 0.00 84 1046.0
20260508050625 10 315 6.4 9.7 0.00 0.00 0.00 84 997.8
20260508050226 10 337 4.8 9.7 0.00 0.00 0.00 84 1016.6
20260508045726 10 292 6.4 8.0 0.00 0.00 0.00 84 1052.2
20260508045226 10 337 6.4 11.3 0.00 0.00 0.00 84 1097.2
20260508044726 10 270 8.0 11.3 0.00 0.00 0.00 84 1016.7
20260508044226 10 337 4.8 11.3 0.00 0.00 0.00 84 1049.1
20260508043726 10 315 8.0 12.9 0.00 0.00 0.00 84 1013.0
20260508043325 10 315 6.4 8.0 0.00 0.00 0.00 84 1001.0
20260508043226 10 292 6.4 9.7 0.00 0.00 0.00 84 1057.6
20260508042726 10 337 9.7 9.7 0.00 0.00 0.00 84 1013.5
20260508042226 10 292 4.8 9.7 0.00 0.00 0.00 84 931.3
20260508041726 10 315 9.7 12.9 0.00 0.00 0.00 84 929.8
20260508041226 10 0 3.2 6.4 0.00 0.00 0.00 84 929.3
20260508040726 9 292 1.6 9.7 0.00 0.00 0.00 84 1055.4
20260508040226 9 22 0.0 6.4 0.00 0.00 0.00 84 1011.2
20260508040025 9 0 6.4 6.4 0.00 0.00 0.00 84 967.4
20260508035726 9 337 4.8 6.4 0.00 0.00 0.00 84 963.0
20260508035226 9 337 1.6 9.7 0.00 0.00 0.00 84 976.8
20260508034726 9 292 3.2 9.7 0.00 0.00 0.00 84 1055.5
20260508034226 9 337 3.2 12.9 0.00 0.00 0.00 84 1053.8
20260508033726 9 225 0.0 11.3 0.00 0.00 0.00 84 996.1
20260508033226 9 315 6.4 9.7 0.00 0.00 0.00 84 1039.7
20260508032725 9 315 8.0 12.9 0.00 0.00 0.00 84 972.8
20260508032226 9 337 1.6 12.9 0.00 0.00 0.00 83 1020.1
20260508031726 9 292 6.4 12.9 0.00 0.00 0.00 83 918.9
20260508031226 9 0 0.0 12.9 0.00 0.00 0.00 83 1081.5
20260508030726 9 315 11.3 11.3 0.00 0.00 0.00 83 1007.3
20260508030226 9 292 3.2 11.3 0.00 0.00 0.00 83 977.8
20260508025726 9 247 8.0 9.7 0.00 0.00 0.00 83 1049.1
20260508025425 10 337 4.8 14.5 0.00 0.00 0.00 83 1004.2
20260508025226 10 337 6.4 14.5 0.00 0.00 0.00 82 1053.6
20260508024726 10 292 3.2 9.7 0.00 0.00 0.00 82 974.8
20260508024226 10 0 9.7 11.3 0.00 0.00 0.00 82 1005.1
20260508023726 10 0 6.4 9.7 0.00 0.00 0.00 82 986.4
20260508023226 10 22 8.0 11.3 0.00 0.00 0.00 82 1051.5
20260508022727 10 0 9.7 9.7 0.00 0.00 0.00 82 1016.6
20260508022226 10 45 3.2 9.7 0.00 0.00 0.00 82 1024.1
20260508022125 10 0 9.7 9.7 0.00 0.00 0.00 82 917.5
20260508021726 10 22 3.2 9.7 0.00 0.00 0.00 82 980.7
20260508021226 10 315 6.4 12.9 0.00 0.00 0.00 82 1067.8
20260508020726 10 0 8.0 12.9 0.00 0.00 0.00 81 1055.4
20260508020226 10 0 6.4 8.0 0.00 0.00 0.00 81 1003.4
20260508015726 10 0 8.0 12.9 0.00 0.00 0.00 81 1001.0
20260508015227 10 337 4.8 12.9 0.00 0.00 0.00 81 981.1
20260508014825 10 22 9.7 12.9 0.00 0.00 0.00 81 971.1
20260508014726 10 337 8.0 12.9 0.00 0.00 0.00 81 997.3
20260508014226 10 22 11.3 12.9 0.00 0.00 0.00 80 968.4
20260508013726 10 0 11.3 12.9 0.00 0.00 0.00 80 1033.7
20260508013226 10 22 12.9 16.1 0.00 0.00 0.00 80 922.3
20260508012726 10 337 11.3 12.9 0.00 0.00 0.00 80 1081.5
20260508012226 10 0 3.2 16.1 0.00 0.00 0.00 80 1021.5
20260508011726 10 0 8.0 9.7 0.00 0.00 0.00 80 1081.5
20260508011525 10 0 6.4 9.7 0.00 0.00 0.00 80 966.6
20260508011226 10 337 4.8 9.7 0.00 0.00 0.00 80 1078.3
20260508010726 10 22 3.2 9.7 0.00 0.00 0.00 79 1007.9
20260508010226 10 0 4.8 9.7 0.00 0.00 0.00 79 967.2
20260508005726 10 22 4.8 12.9 0.00 0.00 0.00 79 1013.5
20260508005226 10 0 6.4 9.7 0.00 0.00 0.00 79 972.4
20260508004726 10 45 4.8 12.9 0.00 0.00 0.00 79 1049.0
20260508004225 10 0 3.2 14.5 0.00 0.00 0.00 79 950.1
20260508003726 10 0 4.8 9.7 0.00 0.00 0.00 79 1066.3
20260508003226 10 22 4.8 4.8 0.00 0.00 0.00 79 1077.4
20260508002726 10 337 3.2 9.7 0.00 0.00 0.00 79 1071.0
20260508002226 10 337 9.7 9.7 0.00 0.00 0.00 79 1015.0
20260508001726 10 45 8.0 11.3 0.00 0.00 0.00 79 1025.0
20260508001226 10 337 11.3 11.3 0.00 0.00 0.00 79 972.9
20260508000925 10 337 3.2 9.7 0.00 0.00 0.00 79 1055.3
20260508000728 10 22 4.8 11.3 0.00 0.00 0.00 79 1007.3
20260508000227 10 0 16.1 17.7 0.00 0.00 0.00 79 1017.1
20260507235727 10 0 8.0 11.3 0.00 0.00 0.00 79 971.7
20260507235226 10 0 4.8 12.9 0.00 0.00 0.00 79 979.7
20260507234726 10 22 4.8 12.9 0.00 0.00 0.00 79 938.2
20260507234227 10 337 8.0 12.9 0.00 0.00 0.00 79 1016.6
20260507233736 10 337 3.2 12.9 0.00 0.00 0.00 79 893.9
20260507233727 10 337 3.2 12.9 0.00 0.00 0.00 79 893.9
20260507233626 10 0 6.4 12.9 0.00 0.00 0.00 79 1013.7
20260507233227 10 337 4.8 12.9 0.00 0.00 0.00 79 930.7
20260507232727 10 45 9.7 11.3 0.00 0.00 0.00 79 980.9
20260507232227 10 337 6.4 8.0 0.00 0.00 0.00 79 1010.4
20260507231727 10 22 6.4 12.9 0.00 0.00 0.00 79 1012.3
20260507231227 10 22 12.9 14.5 0.00 0.00 0.00 79 1046.0
20260507230727 10 22 9.7 16.1 0.00 0.00 0.00 79 1036.6
20260507230326 10 0 8.0 16.1 0.00 0.00 0.00 79 1026.5
20260507230227 10 22 3.2 16.1 0.00 0.00 0.00 79 975.8
20260507225727 10 292 6.4 12.9 0.00 0.00 0.00 79 1100.3
20260507225227 10 315 4.8 16.1 0.00 0.00 0.00 79 983.4
20260507224727 10 0 3.2 16.1 0.00 0.00 0.00 79 1023.7
20260507224227 10 0 16.1 16.1 0.00 0.00 0.00 79 1016.2
20260507223727 11 22 6.4 14.5 0.00 0.00 0.00 78 1052.2
20260507223227 11 45 3.2 14.5 0.00 0.00 0.00 78 1051.5
20260507223026 11 0 14.5 14.5 0.00 0.00 0.00 78 1061.5
20260507222727 11 0 8.0 14.5 0.00 0.00 0.00 78 1052.2
20260507222227 11 337 6.4 9.7 0.00 0.00 0.00 78 1055.3
20260507221727 11 0 3.2 9.7 0.00 0.00 0.00 78 961.4
20260507221227 11 292 1.6 12.9 0.00 0.00 0.00 78 974.7
20260507220727 11 337 12.9 12.9 0.00 0.00 0.00 77 1012.0
20260507220227 11 0 4.8 16.1 0.00 0.00 0.00 78 974.8
20260507215726 11 90 3.2 16.1 0.00 0.00 0.00 77 1052.2
20260507215227 11 0 4.8 11.3 0.00 0.00 0.00 77 1070.1
20260507214727 11 45 8.0 16.1 0.00 0.00 0.00 77 1037.3
20260507214227 11 337 9.7 16.1 0.00 0.00 0.00 77 1094.0
20260507213727 11 0 8.0 12.9 0.00 0.00 0.00 77 988.4
20260507213227 11 0 9.7 12.9 0.00 0.00 0.00 77 1053.3
20260507212727 11 0 8.0 11.3 0.00 0.00 0.00 77 1039.7
20260507212426 11 22 11.3 16.1 0.00 0.00 0.00 77 1004.1
20260507212227 11 22 9.7 16.1 0.00 0.00 0.00 77 1019.7
20260507211727 11 22 8.0 12.9 0.00 0.00 0.00 76 1033.4
20260507211227 11 0 12.9 12.9 0.00 0.00 0.00 76 1001.0
20260507210727 11 22 9.7 11.3 0.00 0.00 0.00 76 1100.3
20260507210227 11 0 6.4 6.4 0.00 0.00 0.00 76 1078.4
20260507205727 11 337 8.0 9.7 0.00 0.00 0.00 76 1042.8
20260507205227 11 0 9.7 16.1 0.00 0.00 0.00 76 1001.0
20260507205126 11 0 11.3 11.3 0.00 0.00 0.00 76 1055.3
20260507204727 11 0 3.2 12.9 0.00 0.00 0.00 76 1084.6
20260507204227 11 315 6.4 9.7 0.00 0.00 0.00 76 1042.8
20260507203727 11 45 3.2 9.7 0.00 0.00 0.00 76 1001.0
20260507203227 11 315 6.4 9.7 0.00 0.00 0.00 76 1081.5
20260507202727 11 337 4.8 8.0 0.00 0.00 0.00 76 1036.5
20260507202227 11 315 4.8 9.7 0.00 0.00 0.00 76 1087.8
20260507201826 11 292 8.0 9.7 0.00 0.00 0.00 76 1049.1
20260507201727 11 292 6.4 6.4 0.00 0.00 0.00 76 1075.2
20260507201227 11 270 3.2 9.7 0.00 0.00 0.00 76 1004.1
20260507200727 11 292 6.4 8.0 0.00 0.00 0.00 76 1084.7
20260507200227 11 67 1.6 9.7 0.00 0.00 0.00 76 991.6
20260507195727 12 292 6.4 9.7 0.00 0.00 0.00 76 1030.2
20260507195227 12 292 4.8 6.4 0.00 0.00 0.00 76 1075.2
20260507194727 12 270 3.2 8.0 0.00 0.00 0.00 76 1081.5
20260507194526 12 292 3.2 9.7 0.00 0.00 0.00 76 1036.5
20260507194227 12 292 4.8 9.7 0.00 0.00 0.00 76 1062.7
20260507193727 12 315 6.4 6.4 0.00 0.00 0.00 76 1078.4
20260507193227 12 315 6.4 9.7 0.00 0.00 0.00 76 1049.3
20260507192727 12 315 3.2 8.0 0.00 0.00 0.00 76 1042.8
20260507192227 12 0 4.8 6.4 0.00 0.00 0.00 76 1097.2
20260507191727 12 315 4.8 9.7 0.00 0.00 0.00 76 1075.2
20260507191226 12 315 1.6 4.8 0.00 0.00 0.00 75 1081.5
20260507190727 12 0 0.0 40.2 0.00 0.00 0.00 75 1078.9
20260507190227 12 292 4.8 6.4 0.00 0.00 0.00 75 1053.7
20260507185727 12 292 0.0 9.7 0.00 0.00 0.00 75 1084.7
20260507185227 12 315 8.0 11.3 0.00 0.00 0.00 75 1078.4
20260507184727 12 292 11.3 11.3 0.00 0.00 0.00 75 1078.4
20260507184227 12 337 4.8 8.0 0.00 0.00 0.00 75 1036.6
20260507183926 12 337 4.8 11.3 0.00 0.00 0.00 75 1010.4
20260507183727 12 292 3.2 11.3 0.00 0.00 0.00 75 1072.1
20260507183227 12 315 8.0 8.0 0.00 0.00 0.00 75 1078.4
20260507182737 12 315 8.0 12.9 0.00 0.00 0.00 75 1087.8
20260507182727 12 315 8.0 12.9 0.00 0.00 0.00 75 1087.8
20260507182227 12 315 1.6 11.3 0.00 0.00 0.00 75 1084.7
20260507181727 12 0 6.4 11.3 0.00 0.00 0.00 75 1072.1
20260507181633 12 315 8.0 14.5 0.00 0.00 0.00 74 1035.0
20260507181227 12 337 9.7 12.9 0.00 0.00 0.00 74 1066.3
20260507180727 12 315 8.0 14.5 0.00 0.00 0.00 74 1035.0
20260507180626 12 292 9.7 14.5 0.00 0.00 0.00 74 1029.5
20260507180227 12 315 1.6 14.5 0.00 0.00 0.00 74 1016.5
20260507175727 12 337 6.4 14.5 0.00 0.00 0.00 74 1039.2
20260507175227 12 292 12.9 14.5 0.00 0.00 0.00 74 1043.7
20260507174727 12 315 12.9 14.5 0.00 0.00 0.00 74 1075.6
20260507174227 12 292 14.5 16.1 0.00 0.00 0.00 73 1024.0
20260507173727 12 315 14.5 19.3 0.00 0.00 0.00 73 1046.0
20260507173326 12 292 11.3 14.5 0.00 0.00 0.00 73 1065.8
20260507173227 12 0 9.7 14.5 0.00 0.00 0.00 73 1082.0
20260507172728 12 0 6.4 19.3 0.00 0.00 0.00 73 1072.1
20260507172227 12 337 8.0 12.9 0.00 0.00 0.00 73 1087.8
20260507171727 13 315 9.7 12.9 0.00 0.00 0.00 73 1091.0
20260507171227 13 315 8.0 22.5 0.00 0.00 0.00 72 1001.0
20260507170727 13 315 9.7 14.5 0.00 0.00 0.00 72 1059.5
20260507170227 13 0 14.5 19.3 0.00 0.00 0.00 72 1087.8
20260507170026 13 22 9.7 19.3 0.00 0.00 0.00 71 1078.4
20260507165727 13 315 3.2 19.3 0.00 0.00 0.00 71 1090.9
20260507165227 13 315 16.1 16.1 0.00 0.00 0.00 70 1090.9
20260507164728 13 337 12.9 16.1 0.00 0.00 0.00 70 962.4
20260507164227 14 292 9.7 14.5 0.00 0.00 0.00 69 1094.1
20260507163727 14 0 0.0 14.5 0.00 0.00 0.00 69 1046.0
20260507163227 14 337 4.8 9.7 0.00 0.00 0.00 70 1039.7
20260507162726 14 0 8.0 12.9 0.00 0.00 0.00 69 1072.1
20260507162227 14 292 12.9 16.1 0.00 0.00 0.00 69 1084.7
20260507161727 14 315 6.4 16.1 0.00 0.00 0.00 69 1068.9
20260507161227 14 22 9.7 17.7 0.00 0.00 0.00 69 1078.4
20260507160727 14 22 3.2 12.9 0.00 0.00 0.00 70 1081.5
20260507160227 14 337 4.8 14.5 0.00 0.00 0.00 70 1007.3
20260507155727 14 0 3.2 12.9 0.00 0.00 0.00 70 956.0
20260507155426 14 337 6.4 8.0 0.00 0.00 0.00 70 1030.2
20260507155228 14 315 6.4 9.7 0.00 0.00 0.00 70 1055.4
20260507154727 14 315 9.7 14.5 0.00 0.00 0.00 70 1046.0
20260507154227 14 292 3.2 17.7 0.00 0.00 0.00 69 1065.8
20260507153727 14 292 8.0 16.1 0.00 0.00 0.00 69 1004.1
20260507153227 15 0 9.7 12.9 0.00 0.00 0.00 69 994.7
20260507152728 15 292 8.0 9.7 0.00 0.00 0.00 68 1016.7
20260507152228 15 292 3.2 14.5 0.00 0.00 0.00 68 1049.1
20260507152126 15 337 11.3 14.5 0.00 0.00 0.00 68 1010.3
20260507151727 15 292 4.8 19.3 0.00 0.00 0.00 67 1001.0
20260507151227 15 292 11.3 12.9 0.00 0.00 0.00 67 977.4
20260507150727 15 292 11.3 14.5 0.00 0.00 0.00 68 997.5
20260507150227 15 315 8.0 11.3 0.00 0.00 0.00 68 1019.8
20260507145727 15 0 4.8 14.5 0.00 0.00 0.00 68 1084.7
20260507145227 15 22 3.2 17.7 0.00 0.00 0.00 68 964.2
20260507144826 15 247 6.4 17.7 0.00 0.00 0.00 68 943.1
20260507144728 15 270 11.3 14.5 0.00 0.00 0.00 68 900.4
20260507144227 15 292 4.8 11.3 0.00 0.00 0.00 68 1016.7
20260507143727 15 292 6.4 19.3 0.00 0.00 0.00 67 962.3
20260507143227 15 315 9.7 19.3 0.00 0.00 0.00 67 981.3
20260507142728 15 292 14.5 16.1 0.00 0.00 0.00 68 1094.1
20260507142236 15 292 6.4 16.1 0.00 0.00 0.00 68 1052.2
20260507142228 15 292 6.4 16.1 0.00 0.00 0.00 68 1052.2
20260507141728 15 315 6.4 20.9 0.00 0.00 0.00 68 1015.3
20260507141527 15 337 4.8 20.9 0.00 0.00 0.00 68 1007.3
20260507141228 15 292 9.7 16.1 0.00 0.00 0.00 68 968.3
20260507140728 15 292 8.0 19.3 0.00 0.00 0.00 68 976.1
20260507140228 15 292 14.5 24.1 0.00 0.00 0.00 67 972.4
20260507135728 16 292 11.3 22.5 0.00 0.00 0.00 67 965.2
20260507135228 16 315 9.7 17.7 0.00 0.00 0.00 67 982.8
20260507134728 16 337 6.4 16.1 0.00 0.00 0.00 68 965.3
20260507134227 16 315 12.9 17.7 0.00 0.00 0.00 68 952.9
20260507133728 16 292 16.1 17.7 0.00 0.00 0.00 68 1004.1
20260507133228 16 292 4.8 17.7 0.00 0.00 0.00 68 1010.4
20260507132728 16 292 8.0 20.9 0.00 0.00 0.00 69 968.6
20260507132228 15 292 16.1 16.1 0.00 0.00 0.00 70 977.8
20260507131728 15 292 4.8 17.7 0.00 0.00 0.00 70 1042.8
20260507131228 15 315 9.7 17.7 0.00 0.00 0.00 70 1016.4
20260507130927 15 292 17.7 19.3 0.00 0.00 0.00 71 1008.4
20260507130728 15 270 8.0 19.3 0.00 0.00 0.00 71 1067.8
20260507130228 15 315 8.0 17.7 0.00 0.00 0.00 72 1052.2
20260507125728 15 292 11.3 17.7 0.00 0.00 0.00 71 974.8
20260507125228 15 315 11.3 14.5 0.00 0.00 0.00 71 968.6
20260507124728 15 315 14.5 16.1 0.00 0.00 0.00 71 1039.7
20260507124228 15 292 12.9 19.3 0.00 0.00 0.00 73 996.9
20260507123728 15 270 6.4 17.7 0.00 0.00 0.00 73 966.1
20260507123627 15 270 4.8 17.7 0.00 0.00 0.00 73 962.3
20260507123228 15 270 6.4 20.9 0.00 0.00 0.00 73 888.0
20260507122728 15 270 16.1 17.7 0.00 0.00 0.00 73 976.0
20260507122228 15 292 11.3 20.9 0.00 0.00 0.00 73 971.8
20260507121728 15 247 17.7 19.3 0.00 0.00 0.00 73 1048.4
20260507121228 15 292 9.7 19.3 0.00 0.00 0.00 73 968.1
20260507120728 15 315 12.9 16.1 0.00 0.00 0.00 73 961.2
20260507120327 15 270 14.5 14.5 0.00 0.00 0.00 73 1052.2
20260507120228 15 247 4.8 14.5 0.00 0.00 0.00 73 1046.0
20260507115728 15 270 1.6 11.3 0.00 0.00 0.00 74 1016.6
20260507115228 15 270 4.8 12.9 0.00 0.00 0.00 73 1016.7
20260507114728 15 292 8.0 9.7 0.00 0.00 0.00 73 1042.8
20260507114228 15 270 6.4 8.0 0.00 0.00 0.00 73 1027.1
20260507113728 15 270 6.4 12.9 0.00 0.00 0.00 73 923.6
20260507113228 15 292 12.9 12.9 0.00 0.00 0.00 74 1046.0
20260507113027 15 0 6.4 9.7 0.00 0.00 0.00 74 1005.8
20260507112728 15 270 9.7 9.7 0.00 0.00 0.00 75 1019.7
20260507112228 15 292 3.2 8.0 0.00 0.00 0.00 77 979.2
20260507111728 14 337 3.2 12.9 0.00 0.00 0.00 78 1061.6
20260507111228 14 0 1.6 12.9 0.00 0.00 0.00 78 1004.1
20260507110728 14 315 6.4 12.9 0.00 0.00 0.00 78 1032.9
20260507110228 14 292 6.4 11.3 0.00 0.00 0.00 77 1094.1
20260507105727 14 292 6.4 12.9 0.00 0.00 0.00 77 1042.8
20260507105228 15 270 4.8 14.5 0.00 0.00 0.00 79 926.7
20260507104728 14 225 6.4 12.9 0.00 0.00 0.00 81 960.8
20260507104228 13 292 3.2 11.3 0.00 0.00 0.00 82 1049.1
20260507103728 13 292 6.4 12.9 0.00 0.00 0.00 82 1004.1
20260507103228 13 315 6.4 9.7 0.00 0.00 0.00 82 1062.7
20260507102728 13 270 3.2 6.4 0.00 0.00 0.00 82 1007.3
20260507102427 13 270 3.2 9.7 0.00 0.00 0.00 82 952.9
20260507102228 13 315 4.8 11.3 0.00 0.00 0.00 82 988.3
20260507101728 13 292 4.8 9.7 0.00 0.00 0.00 82 981.0
20260507101228 13 315 6.4 8.0 0.00 0.00 0.00 82 956.0
20260507100728 12 247 1.6 11.3 0.00 0.00 0.00 82 963.9
20260507100228 12 315 4.8 11.3 0.00 0.00 0.00 81 937.0
20260507095728 12 315 9.7 17.7 0.00 0.00 0.00 81 1026.0
20260507095228 13 337 12.9 17.7 0.00 0.00 0.00 80 1004.5
20260507095127 13 315 8.0 17.7 0.00 0.00 0.00 80 999.4
20260507095103 13 202 4.8 14.5 0.00 0.00 0.00 79 982.7
20260507094728 13 202 4.8 14.5 0.00 0.00 0.00 79 982.7
20260507094228 13 67 9.7 16.1 0.00 0.00 0.00 79 1042.3
20260507093728 13 270 3.2 16.1 0.00 0.00 0.00 78 1048.2
20260507093228 13 292 9.7 17.7 0.00 0.00 0.00 79 920.5
20260507092728 13 270 8.0 17.7 0.00 0.00 0.00 79 1038.3
20260507092228 13 315 6.4 17.7 0.00 0.00 0.00 79 1022.8
20260507091827 13 292 12.9 17.7 0.00 0.00 0.00 79 1094.0
20260507091728 13 292 17.7 17.7 0.00 0.00 0.00 79 970.1
20260507091228 13 247 8.0 12.9 0.00 0.00 0.00 80 1058.5
20260507090728 13 292 12.9 19.3 0.00 0.00 0.00 80 1037.0
20260507090228 13 0 4.8 17.7 0.00 0.00 0.00 79 953.7
20260507085728 14 292 12.9 16.1 0.00 0.00 0.00 79 987.3
20260507085228 14 292 6.4 14.5 0.00 0.00 0.00 80 997.8
20260507084728 14 270 4.8 17.7 0.00 0.00 0.00 81 1055.4
20260507084527 13 292 6.4 12.9 0.00 0.00 0.00 81 1039.7
20260507084228 13 202 3.2 9.7 0.00 0.00 0.00 81 1010.6
20260507083728 13 292 9.7 16.1 0.00 0.00 0.00 81 1045.9
20260507083228 13 292 16.1 16.1 0.00 0.00 0.00 81 1036.5
20260507082728 13 270 9.7 16.1 0.00 0.00 0.00 80 1024.5
20260507082228 14 292 12.9 12.9 0.00 0.00 0.00 79 997.9
20260507081728 14 315 8.0 14.5 0.00 0.00 0.00 79 1010.4
20260507081227 14 292 14.5 14.5 0.00 0.00 0.00 79 1016.5
20260507080728 15 292 6.4 11.3 0.00 0.00 0.00 78 965.7
20260507080228 15 270 8.0 12.9 0.00 0.00 0.00 78 997.8
20260507075728 15 315 12.9 12.9 0.00 0.00 0.00 78 1016.6
20260507075228 15 337 4.8 11.3 0.00 0.00 0.00 78 997.8
20260507074728 15 337 6.4 14.5 0.00 0.00 0.00 77 961.8
20260507074228 15 337 14.5 17.7 0.00 0.00 0.00 76 1007.3
20260507073927 15 315 9.7 16.1 0.00 0.00 0.00 76 1043.6
20260507073728 15 292 8.0 16.1 0.00 0.00 0.00 76 1055.4
20260507073353 15 292 4.8 16.1 0.00 0.00 0.00 76 1004.1
20260507073228 15 270 3.2 12.9 0.00 0.00 0.00 76 1061.6
20260507072728 15 292 4.8 16.1 0.00 0.00 0.00 76 1004.1
20260507072228 16 337 4.8 17.7 0.00 0.00 0.00 76 994.7
20260507071728 16 315 11.3 14.5 0.00 0.00 0.00 77 1016.3
20260507071228 16 315 14.5 16.1 0.00 0.00 0.00 77 1013.5
20260507070728 15 337 6.4 14.5 0.00 0.00 0.00 78 965.5
20260507070627 15 337 6.4 12.9 0.00 0.00 0.00 78 1013.3
20260507070228 15 292 11.3 12.9 0.00 0.00 0.00 79 1019.8
20260507065728 15 270 4.8 16.1 0.00 0.00 0.00 79 973.4
20260507065305 15 0 8.0 17.7 0.00 0.00 0.00 79 1049.1
20260507065228 15 0 8.0 17.7 0.00 0.00 0.00 79 1049.1
20260507064730 15 270 9.7 16.1 0.00 0.00 0.00 79 1046.0
20260507064228 15 292 14.5 19.3 0.00 0.00 0.00 80 1010.3
20260507063728 15 292 11.3 19.3 0.00 0.00 0.00 80 1058.5
20260507063327 15 292 16.1 19.3 0.00 0.00 0.00 79 1090.9
20260507063228 15 292 11.3 19.3 0.00 0.00 0.00 79 1001.0
20260507062729 15 292 14.5 19.3 0.00 0.00 0.00 78 1026.0